SQ7FJB-2 Weather Reports


time (UTC)temp
C
wind
direction
speed
KPH
gust
KPH
rain 1hr
cm
rain 24hr
cm
rain mn
cm
humidity
%
barometer
mb
20260506224734 13 341 0.0 0.0 0.00 0.03 0.00 88 1005.2
20260506223734 13 254 0.0 0.0 0.00 0.03 0.00 86 1005.3
20260506222734 13 18 0.0 0.0 0.03 0.03 0.00 85 1005.2
20260506221734 14 50 0.0 0.0 0.03 0.03 0.00 83 1005.2
20260506220721 15 300 1.6 1.6 0.03 0.03 0.00 80 1005.6
20260506215721 15 306 3.2 3.2 0.03 0.03 0.00 76 1005.6
20260506214721 15 286 0.0 0.0 0.03 0.03 0.00 77 1005.1
20260506213709 16 348 4.8 4.8 0.00 0.00 0.00 70 1005.4
20260506212656 17 182 0.0 0.0 0.00 0.00 0.00 59 1004.8
20260506211644 17 187 0.0 0.0 0.00 0.00 0.00 58 1004.6
20260506210644 16 168 1.6 1.6 0.00 0.00 0.00 61 1004.7
20260506205631 16 96 3.2 3.2 0.00 0.00 0.00 63 1004.7
20260506204619 15 228 1.6 1.6 0.00 0.00 0.00 68 1004.5
20260506203607 14 186 0.0 0.0 0.00 0.00 0.00 79 1004.5
20260506202555 14 186 0.0 0.0 0.00 0.00 0.00 77 1004.6
20260506201554 14 186 0.0 0.0 0.00 0.00 0.00 78 1004.6
20260506200554 14 186 0.0 0.0 0.00 0.00 0.00 77 1004.6
20260506195544 15 186 0.0 0.0 0.00 0.00 0.00 76 1004.7
20260506194529 15 186 0.0 0.0 0.00 0.00 0.00 75 1004.7
20260506193529 15 186 0.0 0.0 0.00 0.00 0.00 74 1004.8
20260506192517 15 186 0.0 0.0 0.00 0.00 0.00 76 1004.8
20260506191505 15 186 0.0 0.0 0.00 0.00 0.00 75 1004.6
20260506190504 15 186 0.0 0.0 0.00 0.00 0.00 73 1004.7
20260506185505 16 186 0.0 0.0 0.00 0.00 0.00 73 1004.5
20260506184504 16 186 0.0 0.0 0.00 0.00 0.00 72 1004.5
20260506183504 16 186 0.0 0.0 0.00 0.00 0.00 72 1004.4
20260506182452 17 186 0.0 0.0 0.00 0.00 0.00 70 1004.3
20260506181451 17 186 0.0 0.0 0.00 0.00 0.00 70 1004.3
20260506180440 18 186 0.0 0.0 0.00 0.00 0.00 68 1004.2
20260506175440 18 186 0.0 0.0 0.00 0.00 0.00 68 1004.0
20260506174439 19 186 0.0 0.0 0.00 0.00 0.00 65 1004.0
20260506173428 20 186 0.0 0.0 0.00 0.00 0.00 61 1004.1
20260506172427 20 186 0.0 0.0 0.00 0.00 0.00 57 1004.0
20260506171414 21 185 0.0 0.0 0.00 0.00 0.00 53 1004.1
20260506170414 21 254 0.0 0.0 0.00 0.00 0.00 52 1004.1
20260506165402 21 255 0.0 0.0 0.00 0.00 0.00 48 1004.0
20260506164401 22 342 0.0 0.0 0.00 0.00 0.00 47 1004.1
20260506163349 22 0 0.0 0.0 0.00 0.00 0.00 45 1004.0
20260506162336 23 268 1.6 1.6 0.00 0.00 0.00 43 1004.0
20260506161324 23 184 0.0 0.0 0.00 0.00 0.00 43 1004.1
20260506160324 22 217 3.2 3.2 0.00 0.00 0.00 44 1004.2
20260506155311 23 177 3.2 3.2 0.00 0.00 0.00 44 1004.2
20260506154311 24 127 3.2 3.2 0.00 0.00 0.00 43 1004.3
20260506153259 23 300 1.6 1.6 0.00 0.00 0.00 43 1004.3
20260506152246 23 116 0.0 0.0 0.00 0.00 0.00 43 1004.3
20260506151234 23 275 0.0 0.0 0.00 0.00 0.00 46 1004.3
20260506150222 23 72 1.6 1.6 0.00 0.00 0.00 44 1004.3
20260506145222 24 158 4.8 4.8 0.00 0.00 0.00 39 1004.3
20260506144221 25 168 3.2 3.2 0.00 0.00 0.00 40 1004.3
20260506143221 23 252 3.2 3.2 0.00 0.00 0.00 41 1004.4
20260506142221 23 342 1.6 1.6 0.00 0.00 0.00 44 1004.4
20260506141209 23 155 3.2 3.2 0.00 0.00 0.00 43 1004.4
20260506140209 23 284 0.0 0.0 0.00 0.00 0.00 42 1004.4
20260506135157 23 197 3.2 3.2 0.00 0.00 0.00 42 1004.4
20260506134157 22 0 0.0 0.0 0.00 0.00 0.00 45 1004.4
20260506133144 22 210 1.6 1.6 0.00 0.00 0.00 44 1004.4
20260506132144 23 185 4.8 4.8 0.00 0.00 0.00 41 1004.4
20260506131132 24 198 8.0 8.0 0.00 0.00 0.00 40 1004.4
20260506130131 25 116 3.2 3.2 0.00 0.00 0.00 41 1004.3
20260506125136 24 186 4.8 6.4 0.00 0.00 0.00 42 1004.5
20260506124119 23 63 3.2 3.2 0.00 0.00 0.00 43 1004.4
20260506123106 23 217 3.2 3.2 0.00 0.00 0.00 44 1004.5
20260506122106 23 246 1.6 1.6 0.00 0.00 0.00 46 1004.5
20260506121106 23 211 1.6 1.6 0.00 0.00 0.00 43 1004.6
20260506120054 23 228 6.4 6.4 0.00 0.00 0.00 44 1004.5
20260506115053 23 330 3.2 3.2 0.00 0.00 0.00 46 1004.5
20260506114054 22 140 9.7 9.7 0.00 0.00 0.00 47 1004.6
20260506113042 23 198 6.4 6.4 0.00 0.00 0.00 45 1004.7
20260506112041 22 240 6.4 6.4 0.00 0.00 0.00 47 1004.6
20260506111041 22 218 3.2 3.2 0.00 0.00 0.00 49 1004.7
20260506110029 22 197 3.2 3.2 0.00 0.00 0.00 49 1004.8
20260506105029 22 192 4.8 6.4 0.00 0.00 0.00 49 1004.7
20260506104016 21 191 3.2 3.2 0.00 0.00 0.00 52 1004.8
20260506103016 22 228 3.2 3.2 0.00 0.00 0.00 50 1004.7
20260506102004 22 282 1.6 1.6 0.00 0.00 0.00 50 1004.7
20260506101004 21 200 4.8 4.8 0.00 0.00 0.00 50 1004.6
20260506095952 21 255 4.8 4.8 0.00 0.00 0.00 50 1004.6
20260506094951 21 324 1.6 1.6 0.00 0.00 0.00 51 1004.6
20260506093939 22 199 3.2 3.2 0.00 0.00 0.00 48 1004.5
20260506092939 21 216 0.0 0.0 0.00 0.00 0.00 52 1004.5
20260506091927 21 191 6.4 6.4 0.00 0.00 0.00 50 1004.5
20260506090914 21 252 3.2 3.2 0.00 0.00 0.00 51 1004.5
20260506085901 21 19 1.6 1.6 0.00 0.00 0.00 52 1004.5
20260506084901 21 78 0.0 0.0 0.00 0.00 0.00 54 1004.5
20260506083901 20 216 4.8 4.8 0.00 0.00 0.00 53 1004.5
20260506082849 20 240 1.6 1.6 0.00 0.00 0.00 56 1004.5
20260506081849 20 167 3.2 3.2 0.00 0.00 0.00 56 1004.4
20260506080837 20 130 3.2 3.2 0.00 0.00 0.00 56 1004.3
20260506072759 18 204 3.2 3.2 0.00 0.00 0.00 58 1004.2
20260506071759 18 109 3.2 3.2 0.00 0.00 0.00 58 1004.2
20260506070758 19 179 0.0 0.0 0.00 0.00 0.00 55 1004.1
20260506061721 16 150 3.2 3.2 0.00 0.00 0.00 62 1003.9
20260506060709 16 169 4.8 4.8 0.00 0.00 0.00 63 1003.9
20260506050644 16 119 3.2 3.2 0.00 0.00 0.00 58 1004.1
20260506044631 14 216 0.0 0.0 0.00 0.00 0.00 57 1004.1
20260506042631 11 192 0.0 0.0 0.00 0.00 0.00 68 1004.2
20260506041619 10 150 0.0 0.0 0.00 0.00 0.00 75 1004.1
20260506040619 10 150 0.0 0.0 0.00 0.00 0.00 75 1004.1
20260506035618 8 150 0.0 0.0 0.00 0.00 0.00 76 1004.1
20260506034619 7 151 0.0 0.0 0.00 0.00 0.00 85 1004.1
20260506033606 6 151 0.0 0.0 0.00 0.00 0.00 88 1004.1
20260506032606 6 151 0.0 0.0 0.00 0.00 0.00 88 1004.1
20260506031606 6 151 0.0 0.0 0.00 0.00 0.00 88 1004.2
20260506030606 6 151 0.0 0.0 0.00 0.00 0.00 87 1004.3
20260506025554 6 151 0.0 0.0 0.00 0.00 0.00 86 1004.3
20260506024553 6 151 0.0 0.0 0.00 0.00 0.00 85 1004.3
20260506023541 6 132 0.0 0.0 0.00 0.00 0.00 86 1004.3
20260506022541 6 194 0.0 0.0 0.00 0.00 0.00 85 1004.3
20260506021528 6 194 0.0 0.0 0.00 0.00 0.00 85 1004.4
20260506020529 6 194 0.0 0.0 0.00 0.00 0.00 84 1004.4
20260506015528 7 194 0.0 0.0 0.00 0.00 0.00 83 1004.5
20260506014516 7 194 0.0 0.0 0.00 0.00 0.00 81 1004.5
20260506013516 7 194 0.0 0.0 0.00 0.00 0.00 81 1004.5
20260506012504 8 204 0.0 0.0 0.00 0.00 0.00 80 1004.5
20260506011451 7 143 0.0 0.0 0.00 0.00 0.00 81 1004.5
20260506010451 7 143 0.0 0.0 0.00 0.00 0.00 81 1004.7
20260506005450 7 143 0.0 0.0 0.00 0.00 0.00 81 1004.7
20260506004438 7 143 0.0 0.0 0.00 0.00 0.00 80 1004.7
20260506003439 7 142 0.0 0.0 0.00 0.00 0.00 82 1004.5
20260506002438 7 142 0.0 0.0 0.00 0.00 0.00 80 1004.5
20260506001438 8 141 0.0 0.0 0.00 0.00 0.00 77 1004.6
20260506000426 8 142 0.0 0.0 0.00 0.00 0.00 76 1004.6
20260505235426 8 134 0.0 0.0 0.00 0.00 0.00 75 1004.7
20260505234426 8 134 0.0 0.0 0.00 0.00 0.00 74 1004.8
20260505233425 8 68 0.0 0.0 0.00 0.00 0.00 73 1004.8
20260505232413 8 261 0.0 0.0 0.00 0.00 0.00 72 1004.9
20260505231413 9 294 0.0 0.0 0.00 0.00 0.00 71 1005.0
20260505230413 9 293 0.0 0.0 0.00 0.00 0.00 72 1004.9
20260505225401 9 210 0.0 0.0 0.00 0.00 0.00 71 1005.0